VK6JI-11 Weather Reports


time (UTC)temp
C
wind
direction
speed
KPH
gust
KPH
rain 1hr
cm
rain 24hr
cm
rain mn
cm
humidity
%
barometer
mb
20260505004113 13 103 3.2 9.7 0.00 0.00 0.00 86 1026.2
20260505003913 13 58 3.2 6.4 0.00 0.00 0.00 86 1026.2
20260505003712 13 45 1.6 6.4 0.00 0.00 0.00 87 1026.2
20260505003511 13 45 1.6 6.4 0.00 0.00 0.00 87 1026.1
20260505003308 12 45 1.6 6.4 0.00 0.00 0.00 87 1026.1
20260505003108 12 45 3.2 8.0 0.00 0.00 0.00 88 1026.0
20260505002907 12 41 3.2 8.0 0.00 0.00 0.00 88 1026.0
20260505002708 12 55 3.2 8.0 0.00 0.00 0.00 89 1026.0
20260505002506 12 53 3.2 8.0 0.00 0.00 0.00 89 1025.9
20260505002306 12 62 6.4 8.0 0.00 0.00 0.00 89 1025.8
20260505002105 12 49 1.6 4.8 0.00 0.00 0.00 90 1025.8
20260505001905 12 44 1.6 4.8 0.00 0.00 0.00 90 1025.8
20260505001705 12 38 1.6 4.8 0.00 0.00 0.00 90 1025.6
20260505001505 11 38 3.2 4.8 0.00 0.00 0.00 90 1025.7
20260505001304 11 61 0.0 3.2 0.00 0.00 0.00 91 1025.6
20260505001107 11 61 1.6 3.2 0.00 0.00 0.00 91 1025.6
20260505000905 11 61 1.6 4.8 0.00 0.00 0.00 91 1025.5
20260505000707 11 61 1.6 4.8 0.00 0.00 0.00 91 1025.6
20260505000506 11 61 0.0 4.8 0.00 0.00 0.00 91 1025.6
20260505000302 11 61 0.0 4.8 0.00 0.00 0.00 91 1025.7
20260504235901 11 62 0.0 3.2 0.00 0.00 0.00 91 1025.6
20260504235700 11 62 1.6 3.2 0.00 0.00 0.00 91 1025.6
20260504235458 11 55 0.0 3.2 0.00 0.00 0.00 90 1025.6
20260504235256 10 55 0.0 3.2 0.00 0.00 0.00 90 1025.6
20260504235056 10 55 0.0 3.2 0.00 0.00 0.00 90 1025.6
20260504234856 10 55 0.0 3.2 0.00 0.00 0.00 90 1025.6
20260504234655 10 55 0.0 0.0 0.00 0.00 0.00 90 1025.6
20260504234455 10 55 0.0 0.0 0.00 0.00 0.00 90 1025.5
20260504234254 10 55 0.0 0.0 0.00 0.00 0.00 90 1025.5
20260504234054 10 55 0.0 0.0 0.00 0.00 0.00 90 1025.4
20260504233853 10 55 0.0 0.0 0.00 0.00 0.00 89 1025.5
20260504233653 10 55 0.0 0.0 0.00 0.00 0.00 89 1025.5
20260504233453 10 55 0.0 0.0 0.00 0.00 0.00 89 1025.4
20260504233252 10 55 0.0 0.0 0.00 0.00 0.00 89 1025.4
20260504233052 10 56 0.0 0.0 0.00 0.00 0.00 89 1025.4
20260504232852 10 55 0.0 0.0 0.00 0.00 0.00 89 1025.3
20260504232652 10 56 0.0 0.0 0.00 0.00 0.00 88 1025.3
20260504232450 10 56 0.0 0.0 0.00 0.00 0.00 88 1025.3
20260504232250 10 56 0.0 0.0 0.00 0.00 0.00 88 1025.3
20260504232049 10 55 0.0 0.0 0.00 0.00 0.00 88 1025.2
20260504231849 10 56 0.0 0.0 0.00 0.00 0.00 88 1025.2
20260504231645 10 56 0.0 0.0 0.00 0.00 0.00 88 1025.2
20260504231445 10 56 0.0 0.0 0.00 0.00 0.00 88 1025.2
20260504231245 10 56 0.0 0.0 0.00 0.00 0.00 88 1025.2
20260504231044 10 56 0.0 0.0 0.00 0.00 0.00 87 1025.1
20260504230844 10 56 0.0 0.0 0.00 0.00 0.00 88 1025.1
20260504230643 10 56 0.0 0.0 0.00 0.00 0.00 87 1025.1
20260504230443 10 56 0.0 0.0 0.00 0.00 0.00 88 1025.1
20260504230242 10 56 0.0 0.0 0.00 0.00 0.00 88 1025.1
20260504230043 10 56 0.0 0.0 0.00 0.00 0.00 88 1025.1
20260504225833 10 56 0.0 0.0 0.00 0.00 0.00 88 1025.1
20260504225631 10 56 0.0 0.0 0.00 0.00 0.00 87 1025.0
20260504225431 10 56 0.0 0.0 0.00 0.00 0.00 87 1024.9
20260504225232 10 56 0.0 0.0 0.00 0.00 0.00 87 1025.0
20260504225032 10 56 0.0 0.0 0.00 0.00 0.00 88 1024.9
20260504224831 10 56 0.0 0.0 0.00 0.00 0.00 88 1024.9
20260504224631 11 56 0.0 0.0 0.00 0.00 0.00 88 1024.9
20260504224430 11 56 0.0 0.0 0.00 0.00 0.00 88 1024.8
20260504224230 11 56 0.0 0.0 0.00 0.00 0.00 88 1024.8
20260504224029 11 56 0.0 0.0 0.00 0.00 0.00 88 1024.8
20260504223829 11 55 0.0 0.0 0.00 0.00 0.00 88 1024.8
20260504223629 11 55 0.0 0.0 0.00 0.00 0.00 88 1024.7
20260504223429 11 55 0.0 0.0 0.00 0.00 0.00 88 1024.7
20260504223230 11 55 0.0 0.0 0.00 0.00 0.00 88 1024.7
20260504223029 11 55 0.0 4.8 0.00 0.00 0.00 88 1024.7
20260504222829 11 55 0.0 4.8 0.00 0.00 0.00 88 1024.6
20260504222629 11 55 0.0 4.8 0.00 0.00 0.00 88 1024.6
20260504222429 11 55 0.0 4.8 0.00 0.00 0.00 88 1024.5
20260504222229 11 55 0.0 4.8 0.00 0.00 0.00 88 1024.5
20260504222029 11 53 0.0 3.2 0.00 0.00 0.00 88 1024.5
20260504221829 11 53 0.0 3.2 0.00 0.00 0.00 88 1024.5
20260504221629 11 48 0.0 3.2 0.00 0.00 0.00 88 1024.4
20260504221428 11 48 0.0 3.2 0.00 0.00 0.00 88 1024.5
20260504221229 11 48 0.0 3.2 0.00 0.00 0.00 88 1024.4
20260504221029 11 48 0.0 1.6 0.00 0.00 0.00 88 1024.4
20260504220824 11 48 0.0 1.6 0.00 0.00 0.00 88 1024.4
20260504220624 11 48 0.0 1.6 0.00 0.00 0.00 88 1024.4
20260504220424 11 48 0.0 1.6 0.00 0.00 0.00 88 1024.4
20260504220221 11 48 0.0 1.6 0.00 0.00 0.00 88 1024.4
20260504220020 11 48 0.0 1.6 0.00 0.00 0.00 88 1024.4
20260504215805 11 48 0.0 1.6 0.00 0.00 0.00 88 1024.4
20260504215604 11 48 0.0 1.6 0.00 0.00 0.00 88 1024.4
20260504215405 11 48 0.0 1.6 0.00 0.00 0.00 88 1024.3
20260504215205 11 48 0.0 1.6 0.00 0.00 0.00 88 1024.3
20260504215005 11 48 0.0 1.6 0.00 0.00 0.00 88 1024.3
20260504214806 11 48 0.0 3.2 0.00 0.00 0.00 88 1024.4
20260504214604 11 48 0.0 3.2 0.00 0.00 0.00 88 1024.3
20260504214404 11 48 0.0 3.2 0.00 0.00 0.00 88 1024.3
20260504214204 11 48 0.0 3.2 0.00 0.00 0.00 88 1024.2
20260504214004 11 48 0.0 3.2 0.00 0.00 0.00 88 1024.2
20260504213803 11 48 0.0 1.6 0.00 0.00 0.00 88 1024.2
20260504213603 11 48 0.0 3.2 0.00 0.00 0.00 88 1024.2
20260504213405 11 48 0.0 4.8 0.00 0.00 0.00 88 1024.2
20260504213204 11 48 0.0 4.8 0.00 0.00 0.00 88 1024.2
20260504213005 11 48 0.0 4.8 0.00 0.00 0.00 88 1024.2
20260504212804 11 48 0.0 4.8 0.00 0.00 0.00 88 1024.3
20260504212604 11 48 1.6 4.8 0.00 0.00 0.00 88 1024.3
20260504212404 11 21 0.0 3.2 0.00 0.00 0.00 88 1024.3
20260504212205 11 21 0.0 3.2 0.00 0.00 0.00 88 1024.3
20260504212004 11 21 1.6 3.2 0.00 0.00 0.00 88 1024.4
20260504211804 11 21 0.0 3.2 0.00 0.00 0.00 88 1024.3
20260504211603 11 21 0.0 3.2 0.00 0.00 0.00 88 1024.2
20260504211403 11 21 0.0 3.2 0.00 0.00 0.00 88 1024.3
20260504211204 11 21 0.0 3.2 0.00 0.00 0.00 88 1024.3
20260504211004 11 21 0.0 0.0 0.00 0.00 0.00 88 1024.4
20260504210804 11 21 0.0 0.0 0.00 0.00 0.00 88 1024.3
20260504210604 11 21 0.0 0.0 0.00 0.00 0.00 88 1024.3
20260504210403 11 21 0.0 0.0 0.00 0.00 0.00 88 1024.3
20260504210204 11 21 0.0 0.0 0.00 0.00 0.00 88 1024.3
20260504210004 11 21 0.0 0.0 0.00 0.00 0.00 88 1024.3
20260504205803 11 21 0.0 0.0 0.00 0.00 0.00 87 1024.3
20260504205603 11 21 0.0 0.0 0.00 0.00 0.00 87 1024.3
20260504205405 11 21 0.0 0.0 0.00 0.00 0.00 87 1024.3
20260504205204 11 21 0.0 0.0 0.00 0.00 0.00 87 1024.3
20260504205003 11 21 0.0 0.0 0.00 0.00 0.00 87 1024.3
20260504204803 11 21 0.0 0.0 0.00 0.00 0.00 87 1024.4
20260504204604 11 21 0.0 0.0 0.00 0.00 0.00 87 1024.3
20260504204404 11 21 0.0 0.0 0.00 0.00 0.00 87 1024.3
20260504204204 11 21 0.0 0.0 0.00 0.00 0.00 87 1024.2
20260504204006 11 21 0.0 0.0 0.00 0.00 0.00 87 1024.3
20260504203803 11 21 0.0 0.0 0.00 0.00 0.00 87 1024.3
20260504203603 11 21 0.0 0.0 0.00 0.00 0.00 87 1024.3
20260504203404 11 21 0.0 0.0 0.00 0.00 0.00 87 1024.3
20260504203204 11 21 0.0 0.0 0.00 0.00 0.00 87 1024.4
20260504203004 11 21 0.0 0.0 0.00 0.00 0.00 87 1024.3
20260504202804 11 21 0.0 0.0 0.00 0.00 0.00 87 1024.3
20260504202604 11 21 0.0 0.0 0.00 0.00 0.00 87 1024.3
20260504202403 11 21 0.0 0.0 0.00 0.00 0.00 87 1024.4
20260504202204 11 21 0.0 0.0 0.00 0.00 0.00 87 1024.4
20260504202004 11 21 0.0 0.0 0.00 0.00 0.00 87 1024.3
20260504201804 11 21 0.0 0.0 0.00 0.00 0.00 87 1024.3
20260504201605 11 21 0.0 3.2 0.00 0.00 0.00 87 1024.3
20260504201403 11 21 0.0 3.2 0.00 0.00 0.00 87 1024.3
20260504201205 11 21 0.0 3.2 0.00 0.00 0.00 87 1024.3
20260504201004 11 21 0.0 3.2 0.00 0.00 0.00 87 1024.2
20260504200804 11 21 0.0 3.2 0.00 0.00 0.00 87 1024.3
20260504200604 11 21 0.0 3.2 0.00 0.00 0.00 87 1024.3
20260504200405 11 151 0.0 0.0 0.00 0.00 0.00 87 1024.2
20260504200203 11 151 0.0 0.0 0.00 0.00 0.00 88 1024.2
20260504200004 11 151 0.0 0.0 0.00 0.00 0.00 88 1024.3
20260504195803 11 151 0.0 0.0 0.00 0.00 0.00 87 1024.4
20260504195605 11 151 0.0 1.6 0.00 0.00 0.00 87 1024.3
20260504195403 11 151 0.0 1.6 0.00 0.00 0.00 88 1024.3
20260504195204 11 151 0.0 1.6 0.00 0.00 0.00 88 1024.3
20260504195003 11 151 0.0 1.6 0.00 0.00 0.00 88 1024.3
20260504194804 11 151 0.0 1.6 0.00 0.00 0.00 88 1024.4
20260504194605 11 151 0.0 1.6 0.00 0.00 0.00 88 1024.4
20260504194404 11 151 0.0 0.0 0.00 0.00 0.00 88 1024.3
20260504194205 11 151 0.0 0.0 0.00 0.00 0.00 88 1024.4
20260504193956 11 151 0.0 0.0 0.00 0.00 0.00 88 1024.3
20260504193755 11 151 0.0 0.0 0.00 0.00 0.00 88 1024.3
20260504193554 11 151 0.0 0.0 0.00 0.00 0.00 88 1024.4
20260504193354 11 151 0.0 0.0 0.00 0.00 0.00 88 1024.3
20260504193154 11 151 0.0 0.0 0.00 0.00 0.00 88 1024.3
20260504192947 11 151 0.0 0.0 0.00 0.00 0.00 88 1024.3
20260504192747 11 151 0.0 0.0 0.00 0.00 0.00 88 1024.3
20260504192547 11 151 0.0 0.0 0.00 0.00 0.00 88 1024.3
20260504192344 11 151 0.0 0.0 0.00 0.00 0.00 88 1024.2
20260504192143 11 151 0.0 0.0 0.00 0.00 0.00 88 1024.3
20260504191942 11 151 0.0 0.0 0.00 0.00 0.00 89 1024.4
20260504191742 11 151 0.0 0.0 0.00 0.00 0.00 89 1024.4
20260504191542 11 151 0.0 0.0 0.00 0.00 0.00 89 1024.3
20260504191341 11 151 0.0 0.0 0.00 0.00 0.00 89 1024.4
20260504191141 11 151 0.0 0.0 0.00 0.00 0.00 88 1024.4
20260504190940 11 151 0.0 0.0 0.00 0.00 0.00 89 1024.4
20260504190739 11 151 0.0 0.0 0.00 0.00 0.00 89 1024.5
20260504190540 11 151 0.0 0.0 0.00 0.00 0.00 89 1024.4
20260504190339 11 151 0.0 0.0 0.00 0.00 0.00 89 1024.4
20260504190138 11 151 0.0 0.0 0.00 0.00 0.00 89 1024.5
20260504185937 11 151 0.0 0.0 0.00 0.00 0.00 89 1024.6
20260504185738 11 151 0.0 0.0 0.00 0.00 0.00 89 1024.6
20260504185537 11 151 0.0 0.0 0.00 0.00 0.00 89 1024.6
20260504185337 11 151 0.0 0.0 0.00 0.00 0.00 89 1024.6
20260504185136 11 151 0.0 0.0 0.00 0.00 0.00 89 1024.6
20260504184936 11 151 0.0 0.0 0.00 0.00 0.00 89 1024.6
20260504184735 11 151 0.0 0.0 0.00 0.00 0.00 89 1024.6
20260504184531 11 152 0.0 0.0 0.00 0.00 0.00 89 1024.6
20260504184330 11 152 0.0 0.0 0.00 0.00 0.00 89 1024.6
20260504184131 11 152 0.0 0.0 0.00 0.00 0.00 89 1024.6
20260504183932 11 152 0.0 0.0 0.00 0.00 0.00 89 1024.6
20260504183731 11 152 0.0 0.0 0.00 0.00 0.00 89 1024.6
20260504183532 11 152 0.0 3.2 0.00 0.00 0.00 89 1024.6
20260504183331 11 152 0.0 3.2 0.00 0.00 0.00 88 1024.6
20260504183132 10 152 0.0 3.2 0.00 0.00 0.00 89 1024.6
20260504182931 10 152 0.0 3.2 0.00 0.00 0.00 88 1024.6
20260504182731 10 152 0.0 3.2 0.00 0.00 0.00 88 1024.6
20260504182530 10 173 0.0 0.0 0.00 0.00 0.00 88 1024.7
20260504182330 10 173 0.0 0.0 0.00 0.00 0.00 88 1024.7
20260504182131 10 173 0.0 0.0 0.00 0.00 0.00 88 1024.7
20260504181931 10 173 0.0 0.0 0.00 0.00 0.00 88 1024.7
20260504181731 10 173 0.0 0.0 0.00 0.00 0.00 87 1024.7
20260504181530 10 173 0.0 0.0 0.00 0.00 0.00 87 1024.8
20260504181331 10 173 0.0 0.0 0.00 0.00 0.00 87 1024.8
20260504181131 10 173 0.0 0.0 0.00 0.00 0.00 87 1024.9
20260504180932 10 173 0.0 0.0 0.00 0.00 0.00 87 1024.8
20260504180731 10 173 0.0 0.0 0.00 0.00 0.00 87 1024.9
20260504180531 10 173 0.0 0.0 0.00 0.00 0.00 87 1024.9
20260504180331 10 173 0.0 0.0 0.00 0.00 0.00 87 1025.0
20260504180131 10 173 0.0 0.0 0.00 0.00 0.00 87 1024.8
20260504175933 10 173 0.0 0.0 0.00 0.00 0.00 87 1024.9
20260504175733 10 173 0.0 0.0 0.00 0.00 0.00 87 1024.9
20260504175534 10 173 0.0 0.0 0.00 0.00 0.00 87 1024.9
20260504175332 10 173 0.0 0.0 0.00 0.00 0.00 87 1024.9
20260504175133 10 173 0.0 0.0 0.00 0.00 0.00 87 1024.9
20260504174933 10 173 0.0 0.0 0.00 0.00 0.00 87 1025.0
20260504174734 10 173 0.0 0.0 0.00 0.00 0.00 87 1024.9
20260504174533 10 173 0.0 0.0 0.00 0.00 0.00 87 1024.9
20260504174334 10 173 0.0 0.0 0.00 0.00 0.00 87 1024.9
20260504174132 10 173 0.0 0.0 0.00 0.00 0.00 86 1024.9
20260504173933 11 173 0.0 0.0 0.00 0.00 0.00 86 1024.9
20260504173732 11 173 0.0 0.0 0.00 0.00 0.00 86 1024.9
20260504173533 11 173 0.0 0.0 0.00 0.00 0.00 86 1024.8
20260504173332 11 173 0.0 0.0 0.00 0.00 0.00 86 1024.9
20260504173133 11 173 0.0 0.0 0.00 0.00 0.00 86 1024.9
20260504172933 11 173 0.0 0.0 0.00 0.00 0.00 86 1024.9
20260504172733 11 173 0.0 0.0 0.00 0.00 0.00 86 1024.9
20260504172535 11 173 0.0 0.0 0.00 0.00 0.00 86 1024.9
20260504172333 11 173 0.0 0.0 0.00 0.00 0.00 86 1025.0
20260504172132 11 173 0.0 0.0 0.00 0.00 0.00 86 1025.0
20260504171933 11 173 0.0 0.0 0.00 0.00 0.00 86 1024.9
20260504171733 11 173 0.0 0.0 0.00 0.00 0.00 86 1025.0
20260504171533 11 173 0.0 0.0 0.00 0.00 0.00 86 1024.9
20260504171330 11 173 0.0 0.0 0.00 0.00 0.00 86 1025.0
20260504171130 11 173 0.0 0.0 0.00 0.00 0.00 86 1025.0
20260504170929 11 173 0.0 0.0 0.00 0.00 0.00 86 1025.0
20260504170728 11 173 0.0 0.0 0.00 0.00 0.00 85 1025.1
20260504170532 11 173 0.0 0.0 0.00 0.00 0.00 85 1025.1
20260504170328 11 173 0.0 0.0 0.00 0.00 0.00 85 1025.1
20260504170127 11 173 0.0 0.0 0.00 0.00 0.00 85 1025.1
20260504151121 12 173 0.0 0.0 0.00 0.00 0.00 81 1025.4
20260504150917 12 173 0.0 0.0 0.00 0.00 0.00 81 1025.4
20260504150717 12 173 0.0 0.0 0.00 0.00 0.00 81 1025.5
20260504150514 13 173 0.0 0.0 0.00 0.00 0.00 81 1025.4
20260504150309 13 173 0.0 0.0 0.00 0.00 0.00 81 1025.3
20260504150109 13 173 0.0 0.0 0.00 0.00 0.00 81 1025.4
20260504141253 13 173 0.0 0.0 0.00 0.00 0.00 81 1025.4
20260504141052 13 173 0.0 0.0 0.00 0.00 0.00 81 1025.4
20260504140853 13 173 0.0 0.0 0.00 0.00 0.00 81 1025.4
20260504140651 13 173 0.0 0.0 0.00 0.00 0.00 81 1025.3
20260504140452 13 173 0.0 0.0 0.00 0.00 0.00 81 1025.4
20260504140251 13 173 0.0 0.0 0.00 0.00 0.00 81 1025.3
20260504130649 14 179 0.0 3.2 0.00 0.00 0.00 82 1025.2
20260504130449 14 179 1.6 3.2 0.00 0.00 0.00 82 1025.2
20260504130249 14 179 0.0 1.6 0.00 0.00 0.00 82 1025.2
20260504120242 15 179 0.0 0.0 0.00 0.00 0.00 80 1025.2
20260504110624 17 179 0.0 1.6 0.00 0.00 0.00 76 1025.5
20260504110421 17 179 0.0 1.6 0.00 0.00 0.00 76 1025.4
20260504110221 17 179 0.0 1.6 0.00 0.00 0.00 76 1025.4
20260504100555 17 223 0.0 8.0 0.00 0.00 0.00 73 1024.7
20260504100351 17 223 0.0 6.4 0.00 0.00 0.00 73 1024.8
20260504100152 17 223 0.0 9.7 0.00 0.00 0.00 73 1024.7
20260504090130 19 214 3.2 16.1 0.00 0.00 0.00 68 1024.3
20260504081931 20 230 4.8 16.1 0.00 0.00 0.00 65 1024.2
20260504081731 20 211 3.2 19.3 0.00 0.00 0.00 65 1024.2
20260504081529 20 211 8.0 19.3 0.00 0.00 0.00 65 1024.2
20260504081329 20 225 6.4 19.3 0.00 0.00 0.00 65 1024.2
20260504081128 20 213 6.4 19.3 0.00 0.00 0.00 64 1024.2
20260504080929 20 225 11.3 19.3 0.00 0.00 0.00 64 1024.1
20260504080728 20 204 12.9 19.3 0.00 0.00 0.00 63 1024.2
20260504080527 20 209 8.0 19.3 0.00 0.00 0.00 64 1024.2
20260504080326 20 213 4.8 19.3 0.00 0.00 0.00 64 1024.3
20260504080127 20 213 6.4 19.3 0.00 0.00 0.00 64 1024.3
20260504070302 25 134 0.0 4.8 0.00 0.00 0.00 47 1024.3
20260504060240 24 80 1.6 4.8 0.00 0.00 0.00 50 1024.4
20260504050619 23 87 0.0 4.8 0.00 0.00 0.00 51 1025.0
20260504050419 23 87 3.2 4.8 0.00 0.00 0.00 51 1025.0
20260504050218 23 87 3.2 4.8 0.00 0.00 0.00 52 1025.1
20260504050017 23 87 0.0 4.8 0.00 0.00 0.00 53 1025.1
20260504045806 23 87 1.6 8.0 0.00 0.00 0.00 52 1025.2
20260504045604 23 87 0.0 9.7 0.00 0.00 0.00 52 1025.2
20260504045406 23 87 3.2 9.7 0.00 0.00 0.00 51 1025.3
20260504045204 23 92 3.2 9.7 0.00 0.00 0.00 51 1025.3
20260504045004 23 61 3.2 9.7 0.00 0.00 0.00 53 1025.4
20260504044805 23 75 4.8 9.7 0.00 0.00 0.00 52 1025.4
20260504044606 23 76 3.2 8.0 0.00 0.00 0.00 53 1025.4
20260504044405 23 92 1.6 8.0 0.00 0.00 0.00 53 1025.4
20260504044205 23 92 3.2 8.0 0.00 0.00 0.00 53 1025.5
20260504044005 23 53 1.6 6.4 0.00 0.00 0.00 52 1025.5
20260504043805 23 53 3.2 6.4 0.00 0.00 0.00 53 1025.5
20260504043604 23 55 3.2 6.4 0.00 0.00 0.00 54 1025.5
20260504043405 22 53 3.2 8.0 0.00 0.00 0.00 53 1025.5
20260504043207 22 53 1.6 8.0 0.00 0.00 0.00 54 1025.6
20260504043006 22 53 3.2 8.0 0.00 0.00 0.00 54 1025.6
20260504042805 22 27 3.2 8.0 0.00 0.00 0.00 53 1025.6
20260504042605 22 27 4.8 8.0 0.00 0.00 0.00 53 1025.7
20260504042405 22 53 3.2 8.0 0.00 0.00 0.00 53 1025.7
20260504042206 22 52 3.2 8.0 0.00 0.00 0.00 54 1025.7
20260504042006 22 52 3.2 8.0 0.00 0.00 0.00 54 1025.8
20260504041806 22 35 4.8 11.3 0.00 0.00 0.00 53 1025.8
20260504041604 22 52 3.2 11.3 0.00 0.00 0.00 55 1025.8
20260504041405 22 18 3.2 11.3 0.00 0.00 0.00 55 1025.9
20260504041205 22 18 3.2 11.3 0.00 0.00 0.00 55 1025.8
20260504041005 22 17 3.2 11.3 0.00 0.00 0.00 56 1025.9
20260504040804 22 72 1.6 9.7 0.00 0.00 0.00 55 1026.0
20260504040605 22 72 3.2 9.7 0.00 0.00 0.00 55 1026.0
20260504040404 22 75 4.8 9.7 0.00 0.00 0.00 55 1026.0
20260504040203 22 27 4.8 9.7 0.00 0.00 0.00 54 1026.0
20260504040004 22 13 3.2 9.7 0.00 0.00 0.00 54 1026.1
20260504035804 22 13 4.8 9.7 0.00 0.00 0.00 54 1026.2
20260504035604 22 84 3.2 4.8 0.00 0.00 0.00 55 1026.2
20260504035405 22 87 3.2 6.4 0.00 0.00 0.00 56 1026.3
20260504035204 22 87 1.6 8.0 0.00 0.00 0.00 57 1026.3
20260504035004 22 86 1.6 8.0 0.00 0.00 0.00 57 1026.3
20260504034804 22 90 3.2 8.0 0.00 0.00 0.00 56 1026.3
20260504034604 22 87 3.2 8.0 0.00 0.00 0.00 56 1026.3
20260504034403 22 73 4.8 9.7 0.00 0.00 0.00 56 1026.4
20260504034203 22 32 1.6 9.7 0.00 0.00 0.00 57 1026.4
20260504034003 22 32 1.6 9.7 0.00 0.00 0.00 56 1026.5
20260504033803 22 31 4.8 9.7 0.00 0.00 0.00 57 1026.5
20260504033604 22 7 4.8 9.7 0.00 0.00 0.00 57 1026.5
20260504033403 22 21 4.8 8.0 0.00 0.00 0.00 56 1026.6
20260504033204 22 66 4.8 8.0 0.00 0.00 0.00 57 1026.5
20260504033004 21 69 3.2 9.7 0.00 0.00 0.00 57 1026.6
20260504032804 21 68 4.8 9.7 0.00 0.00 0.00 58 1026.6
20260504032604 21 70 3.2 9.7 0.00 0.00 0.00 57 1026.6
20260504032404 21 70 3.2 9.7 0.00 0.00 0.00 58 1026.6
20260504032204 21 79 4.8 9.7 0.00 0.00 0.00 59 1026.7
20260504032005 21 83 3.2 14.5 0.00 0.00 0.00 59 1026.6
20260504031804 21 49 3.2 14.5 0.00 0.00 0.00 59 1026.7
20260504031604 21 56 3.2 14.5 0.00 0.00 0.00 59 1026.7
20260504031405 21 69 3.2 14.5 0.00 0.00 0.00 59 1026.8
20260504031202 21 68 4.8 14.5 0.00 0.00 0.00 59 1026.7
20260504031002 21 72 4.8 9.7 0.00 0.00 0.00 59 1026.8
20260504030802 21 77 4.8 9.7 0.00 0.00 0.00 60 1026.8
20260504030603 21 358 4.8 9.7 0.00 0.00 0.00 60 1026.8
20260504030401 21 65 4.8 9.7 0.00 0.00 0.00 60 1026.8
20260504030159 21 65 4.8 8.0 0.00 0.00 0.00 60 1026.8
20260504025957 21 44 4.8 8.0 0.00 0.00 0.00 60 1026.9
20260504025757 21 61 4.8 8.0 0.00 0.00 0.00 60 1026.9
20260504025558 21 80 4.8 8.0 0.00 0.00 0.00 60 1026.9
20260504025356 21 350 3.2 8.0 0.00 0.00 0.00 61 1026.9
20260504025156 20 76 3.2 8.0 0.00 0.00 0.00 61 1026.9
20260504024952 20 49 3.2 9.7 0.00 0.00 0.00 61 1027.0
20260504024753 20 46 4.8 9.7 0.00 0.00 0.00 61 1027.0
20260504024552 20 51 6.4 9.7 0.00 0.00 0.00 61 1027.0
20260504024351 20 62 4.8 9.7 0.00 0.00 0.00 61 1027.1
20260504024150 20 87 4.8 9.7 0.00 0.00 0.00 61 1027.1
20260504023950 20 117 3.2 8.0 0.00 0.00 0.00 62 1027.1
20260504023749 20 53 3.2 8.0 0.00 0.00 0.00 63 1027.2
20260504023553 20 58 1.6 8.0 0.00 0.00 0.00 63 1027.2
20260504023349 20 58 3.2 8.0 0.00 0.00 0.00 63 1027.2
20260504023148 20 46 4.8 8.0 0.00 0.00 0.00 63 1027.2
20260504022948 20 48 3.2 6.4 0.00 0.00 0.00 64 1027.2
20260504022747 20 46 3.2 8.0 0.00 0.00 0.00 64 1027.3
20260504022548 20 77 3.2 11.3 0.00 0.00 0.00 65 1027.2
20260504022346 20 70 3.2 11.3 0.00 0.00 0.00 65 1027.3
20260504022147 20 63 4.8 11.3 0.00 0.00 0.00 64 1027.3
20260504021945 19 44 6.4 11.3 0.00 0.00 0.00 64 1027.4
20260504021746 19 51 4.8 11.3 0.00 0.00 0.00 65 1027.3
20260504021545 19 56 3.2 9.7 0.00 0.00 0.00 66 1027.3
20260504021344 19 65 3.2 9.7 0.00 0.00 0.00 65 1027.4
20260504021141 19 76 4.8 9.7 0.00 0.00 0.00 66 1027.3
20260504020941 19 37 3.2 9.7 0.00 0.00 0.00 66 1027.4
20260504020741 19 51 4.8 9.7 0.00 0.00 0.00 66 1027.3
20260504020539 19 46 4.8 9.7 0.00 0.00 0.00 67 1027.4
20260504020341 18 73 4.8 11.3 0.00 0.00 0.00 68 1027.3
20260504020137 18 24 3.2 11.3 0.00 0.00 0.00 68 1027.4
20260504015936 18 76 3.2 11.3 0.00 0.00 0.00 68 1027.4
20260504015736 18 76 3.2 11.3 0.00 0.00 0.00 68 1027.4
20260504015535 18 62 4.8 11.3 0.00 0.00 0.00 67 1027.4
20260504015337 18 86 3.2 11.3 0.00 0.00 0.00 68 1027.5
20260504015136 18 89 4.8 11.3 0.00 0.00 0.00 68 1027.5
20260504014935 18 49 6.4 11.3 0.00 0.00 0.00 68 1027.4
20260504014735 18 53 4.8 11.3 0.00 0.00 0.00 69 1027.4
20260504014535 18 44 3.2 11.3 0.00 0.00 0.00 70 1027.4
20260504014335 18 68 3.2 11.3 0.00 0.00 0.00 70 1027.4
20260504014137 18 53 6.4 11.3 0.00 0.00 0.00 70 1027.4
20260504013936 17 53 4.8 11.3 0.00 0.00 0.00 72 1027.4
20260504013735 17 45 1.6 8.0 0.00 0.00 0.00 72 1027.4
20260504013535 17 46 4.8 8.0 0.00 0.00 0.00 72 1027.3
20260504013335 17 76 3.2 8.0 0.00 0.00 0.00 74 1027.3
20260504013137 17 42 3.2 8.0 0.00 0.00 0.00 74 1027.3
20260504012935 17 62 3.2 6.4 0.00 0.00 0.00 74 1027.3
20260504012735 17 350 4.8 6.4 0.00 0.00 0.00 75 1027.3
20260504012536 16 62 3.2 6.4 0.00 0.00 0.00 76 1027.4
20260504012335 16 73 3.2 6.4 0.00 0.00 0.00 77 1027.4
20260504012137 16 66 3.2 6.4 0.00 0.00 0.00 78 1027.5
20260504011935 16 66 3.2 8.0 0.00 0.00 0.00 78 1027.4
20260504011731 16 66 3.2 8.0 0.00 0.00 0.00 79 1027.5
20260504011517 16 69 3.2 8.0 0.00 0.00 0.00 80 1027.5
20260504011317 15 70 3.2 8.0 0.00 0.00 0.00 81 1027.5
20260504011116 15 66 1.6 8.0 0.00 0.00 0.00 81 1027.5
20260504010915 15 53 3.2 9.7 0.00 0.00 0.00 82 1027.5
20260504010715 15 22 4.8 9.7 0.00 0.00 0.00 82 1027.4
20260504010515 15 68 3.2 9.7 0.00 0.00 0.00 83 1027.5
20260504010316 15 68 3.2 9.7 0.00 0.00 0.00 83 1027.6
20260504010111 14 68 4.8 9.7 0.00 0.00 0.00 83 1027.6
20260504005910 14 79 3.2 8.0 0.00 0.00 0.00 84 1027.6
20260504005711 14 27 3.2 8.0 0.00 0.00 0.00 84 1027.5
20260504005510 13 80 3.2 8.0 0.00 0.00 0.00 85 1027.5
20260504005309 13 69 1.6 8.0 0.00 0.00 0.00 85 1027.6
20260504005109 13 63 4.8 8.0 0.00 0.00 0.00 86 1027.6
20260504004911 13 73 3.2 6.4 0.00 0.00 0.00 86 1027.5
20260504004708 13 79 3.2 6.4 0.00 0.00 0.00 86 1027.5
20260504004508 13 68 3.2 6.4 0.00 0.00 0.00 86 1027.6
20260504004307 13 53 1.6 6.4 0.00 0.00 0.00 87 1027.6